• In Belgium
  • List of Countries
  • For 7 days
  • Water Temperature
  • Satellite Maps
  • Weather Map
  • Weather Widgets
  • user-avatar
    Login

    Hourly Weather Horog

    Today, 23 July, Monday

    Time Temperature Precipitation Wind Pressure Humidity
    00:00 +14°C° 0 mm 2 mps 493 mmHg 48%
    01:00 +13°C° 0 mm 2 mps 493 mmHg 50%
    02:00 +13°C° 0 mm 1 mps 492 mmHg 52%
    03:00 +12°C° 0 mm 1 mps 492 mmHg 53%
    04:00 +12°C° 0 mm 1 mps 492 mmHg 55%
    05:00 +11°C° 0 mm 1 mps 491 mmHg 57%
    06:00 +12°C° 0 mm 1 mps 492 mmHg 54%
    07:00 +13°C° 0 mm 1 mps 493 mmHg 50%
    08:00 +14°C° 0 mm 1 mps 493 mmHg 47%
    09:00 +15°C° 0 mm 1 mps 494 mmHg 44%
    10:00 +16°C° 0 mm 2 mps 494 mmHg 40%
    11:00 +18°C° 0 mm 2 mps 495 mmHg 37%
    12:00 +18°C° 0.1 mm 2 mps 495 mmHg 35%
    13:00 +19°C° 0.1 mm 3 mps 496 mmHg 32%
    14:00 +20°C° 0.1 mm 3 mps 496 mmHg 30%
    15:00 +20°C° 0 mm 3 mps 496 mmHg 30%
    16:00 +20°C° 0 mm 3 mps 496 mmHg 29%
    17:00 +20°C° 0 mm 4 mps 496 mmHg 29%
    18:00 +18°C° 0 mm 3 mps 495 mmHg 32%
    19:00 +17°C° 0 mm 3 mps 494 mmHg 34%
    20:00 +16°C° 0 mm 2 mps 494 mmHg 37%
    21:00 +15°C° 0 mm 2 mps 494 mmHg 39%
    22:00 +14°C° 0 mm 2 mps 493 mmHg 42%
    23:00 +13°C° 0 mm 1 mps 493 mmHg 44%

    Tomorrow, 24 July, Tuesday

    Time Temperature Precipitation Wind Pressure Humidity
    00:00 +13°C° 0 mm 1 mps 493 mmHg 46%
    01:00 +12°C° 0 mm 1 mps 492 mmHg 48%
    02:00 +12°C° 0 mm 1 mps 492 mmHg 50%
    03:00 +11°C° 0 mm 1 mps 492 mmHg 51%
    04:00 +11°C° 0 mm 1 mps 491 mmHg 53%
    05:00 +10°C° 0 mm 1 mps 491 mmHg 55%
    06:00 +11°C° 0 mm 1 mps 492 mmHg 50%
    07:00 +12°C° 0 mm 1 mps 493 mmHg 46%
    08:00 +14°C° 0 mm 1 mps 494 mmHg 41%
    09:00 +15°C° 0 mm 1 mps 494 mmHg 39%
    10:00 +16°C° 0 mm 2 mps 495 mmHg 36%
    11:00 +17°C° 0 mm 2 mps 496 mmHg 33%
    12:00 +18°C° 0 mm 3 mps 496 mmHg 31%
    13:00 +19°C° 0 mm 3 mps 496 mmHg 29%
    14:00 +20°C° 0 mm 4 mps 496 mmHg 26%
    15:00 +20°C° 0 mm 4 mps 496 mmHg 27%
    16:00 +19°C° 0 mm 4 mps 496 mmHg 28%
    17:00 +19°C° 0 mm 4 mps 495 mmHg 28%
    18:00 +18°C° 0 mm 4 mps 495 mmHg 31%
    19:00 +17°C° 0 mm 3 mps 495 mmHg 34%
    20:00 +14°C° 0 mm 3 mps 494 mmHg 37%
    21:00 +15°C° 0 mm 2 mps 494 mmHg 40%
    22:00 +14°C° 0 mm 2 mps 494 mmHg 42%
    23:00 +13°C° 0 mm 2 mps 494 mmHg 45%

    Day after tomorrow, 25 July, Wednesday

    Time Temperature Precipitation Wind Pressure Humidity
    00:00 +12°C° 0 mm 2 mps 493 mmHg 46%
    01:00 +12°C° 0 mm 1 mps 493 mmHg 48%
    02:00 +11°C° 0 mm 1 mps 492 mmHg 50%
    03:00 +10°C° 0 mm 1 mps 492 mmHg 52%
    04:00 +10°C° 0 mm 1 mps 492 mmHg 54%
    05:00 +9°C° 0 mm 1 mps 492 mmHg 56%
    06:00 +10°C° 0 mm 1 mps 492 mmHg 52%
    07:00 +11°C° 0 mm 1 mps 493 mmHg 48%
    08:00 +12°C° 0 mm 1 mps 493 mmHg 44%
    09:00 +14°C° 0 mm 1 mps 494 mmHg 40%
    10:00 +15°C° 0 mm 2 mps 494 mmHg 36%
    11:00 +16°C° 0 mm 2 mps 495 mmHg 32%
    12:00 +17°C° 0 mm 3 mps 495 mmHg 30%
    13:00 +18°C° 0 mm 3 mps 495 mmHg 29%
    14:00 +19°C° 0 mm 4 mps 495 mmHg 27%
    15:00 +18°C° 0 mm 4 mps 495 mmHg 28%
    16:00 +18°C° 0 mm 4 mps 495 mmHg 29%
    17:00 +18°C° 0 mm 4 mps 494 mmHg 30%
    18:00 +17°C° 0 mm 4 mps 494 mmHg 33%
    19:00 +14°C° 0 mm 3 mps 494 mmHg 36%
    20:00 +13°C° 0 mm 3 mps 493 mmHg 39%
    21:00 +12°C° 0 mm 3 mps 493 mmHg 42%
    22:00 +12°C° 0 mm 2 mps 492 mmHg 44%
    23:00 +10°C° 0 mm 2 mps 492 mmHg 46%

    26 July, Thursday

    Time Temperature Precipitation Wind Pressure Humidity
    00:00 +10°C° 0 mm 2 mps 492 mmHg 48%
    01:00 +9°C° 0 mm 2 mps 491 mmHg 50%
    02:00 +9°C° 0 mm 1 mps 491 mmHg 51%
    03:00 +9°C° 0 mm 1 mps 490 mmHg 53%
    04:00 +8°C° 0 mm 1 mps 490 mmHg 54%
    05:00 +8°C° 0 mm 1 mps 490 mmHg 55%
    06:00 +9°C° 0 mm 1 mps 490 mmHg 50%
    07:00 +10°C° 0 mm 1 mps 491 mmHg 44%
    08:00 +11°C° 0 mm 1 mps 492 mmHg 39%
    09:00 +12°C° 0 mm 2 mps 492 mmHg 35%
    10:00 +13°C° 0 mm 2 mps 493 mmHg 31%
    11:00 +14°C° 0 mm 2 mps 493 mmHg 27%
    12:00 +14°C° 0 mm 3 mps 494 mmHg 25%
    13:00 +16°C° 0 mm 3 mps 494 mmHg 23%
    14:00 +17°C° 0 mm 4 mps 494 mmHg 21%
    15:00 +17°C° 0 mm 4 mps 494 mmHg 22%
    16:00 +17°C° 0 mm 4 mps 494 mmHg 22%
    17:00 +15°C° 0 mm 4 mps 493 mmHg 23%
    18:00 +14°C° 0 mm 4 mps 493 mmHg 26%
    19:00 +13°C° 0 mm 3 mps 493 mmHg 29%
    20:00 +11°C° 0 mm 3 mps 492 mmHg 32%
    21:00 +10°C° 0 mm 3 mps 492 mmHg 36%
    22:00 +10°C° 0 mm 2 mps 491 mmHg 39%
    23:00 +9°C° 0 mm 2 mps 491 mmHg 42%

    27 July, Friday

    Time Temperature Precipitation Wind Pressure Humidity
    00:00 +8°C° 0 mm 2 mps 490 mmHg 44%
    01:00 +7°C° 0 mm 2 mps 490 mmHg 47%
    02:00 +8°C° 0 mm 1 mps 489 mmHg 49%
    03:00 +7°C° 0 mm 1 mps 489 mmHg 51%
    04:00 +7°C° 0 mm 1 mps 489 mmHg 53%
    05:00 +6°C° 0 mm 1 mps 489 mmHg 54%
    06:00 +7°C° 0 mm 1 mps 489 mmHg 49%
    07:00 +8°C° 0 mm 1 mps 490 mmHg 44%
    08:00 +9°C° 0 mm 1 mps 491 mmHg 38%
    09:00 +11°C° 0 mm 1 mps 492 mmHg 34%
    10:00 +12°C° 0 mm 2 mps 492 mmHg 29%
    11:00 +13°C° 0 mm 2 mps 493 mmHg 25%
    12:00 +13°C° 0 mm 3 mps 493 mmHg 23%
    13:00 +14°C° 0 mm 3 mps 493 mmHg 21%
    14:00 +15°C° 0 mm 4 mps 493 mmHg 19%
    15:00 +15°C° 0 mm 4 mps 493 mmHg 19%
    16:00 +15°C° 0 mm 4 mps 493 mmHg 20%
    17:00 +15°C° 0 mm 4 mps 493 mmHg 21%
    18:00 +13°C° 0 mm 4 mps 492 mmHg 24%
    19:00 +12°C° 0 mm 3 mps 492 mmHg 28%
    20:00 +11°C° 0 mm 3 mps 492 mmHg 31%
    21:00 +10°C° 0 mm 2 mps 491 mmHg 35%
    22:00 +9°C° 0 mm 2 mps 491 mmHg 38%
    23:00 +8°C° 0 mm 2 mps 490 mmHg 41%

    28 July, Saturday

    Time Temperature Precipitation Wind Pressure Humidity
    00:00 +7°C° 0 mm 2 mps 490 mmHg 44%
    01:00 +8°C° 0 mm 1 mps 489 mmHg 46%
    02:00 +7°C° 0 mm 1 mps 489 mmHg 48%
    03:00 +7°C° 0 mm 1 mps 488 mmHg 50%
    04:00 +6°C° 0 mm 1 mps 488 mmHg 52%
    05:00 +5°C° 0 mm 0 mps 488 mmHg 54%
    06:00 +7°C° 0 mm 1 mps 489 mmHg 48%
    07:00 +8°C° 0 mm 1 mps 490 mmHg 42%
    08:00 +9°C° 0 mm 1 mps 490 mmHg 35%
    09:00 +10°C° 0 mm 1 mps 491 mmHg 31%
    10:00 +12°C° 0 mm 2 mps 492 mmHg 26%
    11:00 +13°C° 0 mm 2 mps 492 mmHg 21%
    12:00 +13°C° 0 mm 3 mps 492 mmHg 19%
    13:00 +14°C° 0 mm 3 mps 493 mmHg 17%
    14:00 +15°C° 0 mm 4 mps 493 mmHg 16%
    15:00 +15°C° 0 mm 4 mps 493 mmHg 16%
    16:00 +14°C° 0 mm 4 mps 493 mmHg 17%
    17:00 +14°C° 0 mm 4 mps 493 mmHg 18%
    18:00 +13°C° 0 mm 4 mps 492 mmHg 21%
    19:00 +11°C° 0 mm 3 mps 492 mmHg 24%
    20:00 +10°C° 0 mm 3 mps 491 mmHg 27%
    21:00 +9°C° 0 mm 2 mps 491 mmHg 30%
    22:00 +8°C° 0 mm 2 mps 491 mmHg 34%
    23:00 +7°C° 0 mm 2 mps 490 mmHg 37%
    Show more